Location: Melbourne
(37.8170°S, 144.9670°E)
Time: 10:29:01
(UTC+11:00)

Daily predictions for brighter satellites

Satellite Brightness Start Highest point End
(mag) Time Altitude Azimuth Time Altitude Azimuth Time Altitude Azimuth
Cosmos 1503 Rocket 4.1 20:28:02 10° S 20:33:14 60° ESE 20:38:21 10° NNE
Delta 2 Rocket 3.2 20:30:54 10° W 20:34:45 63° N 20:38:13 10° E
Cosmos 2227 Rocket 3.8 20:35:17 10° SW 20:40:28 37° WNW 20:45:37 10° N
SJ-6B 3.1 20:37:37 10° SSE 20:41:44 50° E 20:45:47 10° N
NOSS 3-3 (A) 4.3 20:35:30 10° SSW 20:42:01 55° SE 20:48:02 10° NE
NOSS 3-3 (C) 4.3 20:35:32 10° SSW 20:42:04 55° SE 20:48:05 10° NE
NOSS 3-2 (C) 4.1 20:36:10 10° NNW 20:44:21 85° ENE 20:52:00 10° SE
SL-24 R/B 4.5 20:47:18 10° SSE 20:52:12 57° E 20:56:57 10° N
FREGAT/IRIS 2.6 20:49:04 10° SSE 20:52:13 84° ENE 20:55:19 10° N
CENTAUR R/B 3.5 20:47:34 10° N 20:54:41 35° ENE 21:01:15 10° SE
Meteor 2-4 Rocket 4.3 20:53:27 10° NNE 20:58:08 31° E 21:02:55 10° SSE
HJ-1C 3.6 20:54:49 10° SSE 20:58:16 51° E 21:01:37 10° N
ISS -2.7 20:56:33 10° NNW 20:59:35 36° NE 21:02:35 10° ESE
SL-8 Rocket 4.3 20:53:52 10° S 20:59:50 45° ESE 21:05:45 10° NNE
Cosmos 1743 3.3 20:56:23 10° S 21:00:02 37° E 21:03:15 12° NE
Cosmos 1544 Rocket 4.4 20:55:56 10° SSW 21:00:21 54° W 21:04:40 10° N
Cosmos 1500 3.4 21:00:29 10° S 21:04:27 77° W 21:08:20 10° N
FALCON 9 R/B 2.2 20:57:59 10° W 21:04:41 44° NNW 21:06:45 18° NE
Cosmos 1295 Rocket 4.5 20:58:50 10° S 21:04:58 66° E 21:11:03 10° NNE
Cosmos 1238 Rocket 3.1 21:01:48 10° N 21:05:50 85° E 21:10:54 10° S
CZ-2D R/B 4.1 21:02:29 10° SE 21:05:56 29° E 21:09:18 10° NNE
Cosmos 44 Rocket 3.8 21:04:56 10° N 21:09:09 33° ENE 21:13:29 10° SE
BREEZE-M DEB (TANK) 2.8 21:09:31 10° W 21:11:26 46° SSW 21:14:53 10° ESE
H-2A R/B 2.9 21:08:51 10° SSE 21:12:35 49° E 21:16:13 10° N
Cosmos 1697 Rocket 4.4 21:07:44 10° NW 21:12:54 36° WSW 21:18:07 10° S
Abrixas 4.5 21:10:43 10° SSW 21:12:58 19° SSE 21:14:24 14° ESE
Cosmos 1340 2.7 21:10:21 10° N 21:14:09 87° W 21:18:02 10° S
Cosmos 2227 4.2 21:08:56 10° SSW 21:14:38 70° ESE 21:19:26 14° NNE
Cosmos 2341 Rocket 4.2 21:10:51 10° S 21:17:10 78° W 21:23:28 10° N
Cosmos 2360 Rocket 3.6 21:17:57 18° E 21:17:57 18° E 21:21:01 10° ESE
Cosmos 1980 Rocket 3.0 21:11:55 10° NW 21:17:31 56° WSW 21:23:10 10° SSE
Spot 2 Rocket 3.6 21:12:52 10° SSE 21:17:53 54° E 21:22:50 10° N
USA 186 2.7 21:15:38 10° SE 21:18:24 27° E 21:18:24 27° E
FengYun 1-2 T 4.2 21:13:10 10° SSE 21:18:47 71° ENE 21:24:17 10° N
Lacrosse 5 rocket 2.9 21:14:35 10° WSW 21:18:56 37° NW 21:23:11 10° N
SL-19 R/B 4.5 21:16:19 10° SSE 21:22:09 52° ENE 21:27:37 10° N
Cosmos 44 3.9 21:18:51 10° N 21:22:37 27° ENE 21:26:35 10° SE
Cosmos 2181 Rocket 4.3 21:16:44 10° NNW 21:23:11 76° W 21:29:44 10° S
Resurs 01 Rocket 1.5 21:22:18 10° SSE 21:26:51 78° ENE 21:31:18 10° N
ALOS 2.5 21:22:18 10° S 21:27:02 76° WSW 21:31:44 10° NNW
Cosmos 1975 4.4 21:23:38 10° SSW 21:27:23 36° W 21:31:04 10° NNW
Tiangong 1 1.8 21:28:05 10° WSW 21:30:58 42° SSE 21:31:41 34° SE
Cosmos 220 Rocket 4.1 21:27:32 10° SSW 21:32:02 78° WNW 21:35:11 19° N
FENGYUN 3A 3.8 21:27:29 10° S 21:32:57 80° WSW 21:38:21 10° NNW
Envisat 4.0 21:29:39 10° SE 21:33:46 26° E 21:33:46 26° E
Nimbus 7 Rocket 4.4 21:28:34 10° NNE 21:34:24 89° ESE 21:40:22 10° SSW
Cosmos 1025 Rocket 3.0 21:30:52 11° N 21:34:58 61° E 21:39:22 10° SSE
Okean 1-7 Rocket 3.5 21:31:44 10° N 21:36:10 87° E 21:40:39 10° S
Cosmos 1726 Rocket 4.3 21:38:09 10° SSE 21:42:17 34° ESE 21:42:32 34° E
Resurs 1-3 3.7 21:41:37 10° S 21:46:05 76° WSW 21:50:29 10° NNW
Helios 1A 2.9 21:46:02 10° SSE 21:50:21 73° ENE 21:52:28 29° N
deb Chang Zheng 4 3.7 21:49:33 45° NE 21:50:40 61° ESE 21:55:08 10° S
SL-16 R/B 2.2 21:46:56 10° NNW 21:52:38 83° WSW 21:58:23 10° SSE
Cosmos 2366 rocket 4.0 21:51:30 10° S 21:57:53 84° W 22:02:24 20° N
Nadezhda 3 Rocket 4.1 21:59:12 36° NNE 22:01:36 55° E 22:07:49 10° SSE
Meteor 2-9 Rocket 4.1 21:59:22 10° SSW 22:04:45 78° W 22:07:17 32° N
DMSP B5D2-2 4.1 22:03:57 51° ENE 22:04:58 62° ESE 22:10:11 10° S
Cosmos 2263 Rocket 2.3 22:00:16 10° SSW 22:05:55 59° ESE 22:07:00 50° ENE
NOSS 2-1 (D) 4.5 22:01:24 10° SW 22:08:17 67° WNW 22:10:12 41° N
NOSS 2-1 (C) 4.5 22:01:45 10° SW 22:08:41 68° WNW 22:10:35 41° N
USA 32 4.0 22:08:56 57° ENE 22:09:27 60° E 22:14:40 10° SSE
Cosmos 2322 Rocket 2.8 22:03:54 10° NW 22:09:29 58° WSW 22:15:09 10° SSE
Cosmos 1666 3.7 22:06:23 10° SSW 22:10:10 44° W 22:11:23 33° NW
Meteor 2-21 Rocket 4.3 22:13:12 10° S 22:19:27 86° E 22:21:13 50° NNE
PKM 4.4 22:13:23 10° SW 22:20:09 56° SE 22:20:09 56° SE
APEX 4.3 22:16:43 10° SSW 22:22:07 51° WNW 22:22:56 45° NW
Cosmos 968 Rocket 4.3 22:17:06 10° SSW 22:22:12 48° WNW 22:24:10 32° NNW
Cosmos 2322 3.9 22:25:46 55° ESE 22:25:46 55° ESE 22:30:30 10° SSE
Cosmos 1606 Rocket 4.2 22:28:25 10° SSW 22:32:48 50° W 22:33:06 49° WNW
ISS -0.8 22:33:20 10° W 22:35:19 22° SW 22:35:19 22° SW
Cosmos 1939 Rocket 4.2 22:32:52 10° S 22:35:11 33° S 22:35:11 33° S
Cosmos 1934 Rocket 4.4 22:32:12 10° S 22:37:53 49° ESE 22:37:53 49° ESE
Cosmos 2058 Rocket 3.9 22:40:06 10° SSW 22:43:36 49° SW 22:43:36 49° SW
CENTAUR R/B 3.6 22:37:30 10° NW 22:45:14 52° SW 22:52:13 10° SSE
DNEPR-1 R/B 4.4 22:43:06 38° NW 22:45:35 84° WSW 22:52:41 10° SSE
Cosmos 2239 Rocket 4.4 22:47:04 10° S 22:53:05 83° SSE 22:53:05 83° SSE
CZ-4B R/B 4.1 22:55:52 50° W 22:55:52 50° W 23:00:18 10° SSW
Milstar 3 3.7 22:52:00 10° WNW 22:57:39 42° NNW 22:57:39 42° NNW
Cosmos 2360 Rocket 2.7 22:59:33 48° WNW 23:00:44 57° WSW 23:06:23 10° SSE
Cosmos 2344 4.3 22:53:15 10° SW 23:05:05 64° WNW 23:07:51 48° N
Envisat 4.5 23:08:19 10° S 23:12:56 34° WSW 23:13:57 31° W
ERS-1 Rocket 4.2 23:14:44 10° S 23:18:21 40° SSW 23:18:21 40° SSW
H-2A R/B 4.4 23:26:30 10° SSE 23:27:06 13° SSE 23:27:06 13° SSE
Cosmos 1844 Rocket 4.0 23:31:38 10° SSW 23:34:57 36° S 23:34:57 36° S
Cosmos 2263 Rocket 4.4 23:45:41 10° WSW 23:48:43 17° W 23:48:43 17° W
